Previsão horária em Juticalpa

Hoje, 23 Junho, Quarta-feira

Tempo Temperatura Precipitação Vento Pressão Humidade
00:00 +24°C° 0 mm 1 m/s 729 mmHg 97%
01:00 +22°C° 0 mm 0 m/s 728 mmHg 97%
02:00 +21°C° 0 mm 0 m/s 728 mmHg 97%
03:00 +21°C° 0 mm 0 m/s 728 mmHg 98%
04:00 +22°C° 0 mm 0 m/s 728 mmHg 97%
05:00 +22°C° 0 mm 0 m/s 728 mmHg 96%
06:00 +22°C° 0 mm 0 m/s 729 mmHg 96%
07:00 +25°C° 0.1 mm 1 m/s 729 mmHg 89%
08:00 +27°C° 0.1 mm 1 m/s 730 mmHg 83%
09:00 +28°C° 0.1 mm 1 m/s 730 mmHg 76%
10:00 +30°C° 0.7 mm 1 m/s 730 mmHg 68%
11:00 +31°C° 0.7 mm 2 m/s 729 mmHg 61%
12:00 +34°C° 0.7 mm 2 m/s 729 mmHg 53%
13:00 +35°C° 0 mm 2 m/s 728 mmHg 46%
14:00 +36°C° 0 mm 3 m/s 728 mmHg 39%
15:00 +37°C° 0 mm 3 m/s 727 mmHg 32%
16:00 +35°C° 0 mm 3 m/s 727 mmHg 37%
17:00 +34°C° 0 mm 3 m/s 727 mmHg 41%
18:00 +31°C° 0 mm 3 m/s 727 mmHg 46%
19:00 +29°C° 0 mm 2 m/s 727 mmHg 52%
20:00 +27°C° 0 mm 2 m/s 728 mmHg 58%
21:00 +26°C° 0 mm 1 m/s 728 mmHg 65%
22:00 +25°C° 0 mm 1 m/s 728 mmHg 71%
23:00 +24°C° 0 mm 1 m/s 728 mmHg 78%

Amanhã, 24 Junho, Quinta-feira

Tempo Temperatura Precipitação Vento Pressão Humidade
00:00 +21°C° 0 mm 0 m/s 728 mmHg 84%
01:00 +21°C° 0 mm 0 m/s 728 mmHg 87%
02:00 +21°C° 0 mm 0 m/s 728 mmHg 91%
03:00 +20°C° 0 mm 0 m/s 728 mmHg 94%
04:00 +21°C° 0 mm 0 m/s 728 mmHg 92%
05:00 +21°C° 0 mm 0 m/s 728 mmHg 90%
06:00 +22°C° 0 mm 0 m/s 729 mmHg 87%
07:00 +24°C° 0 mm 0 m/s 729 mmHg 78%
08:00 +27°C° 0 mm 1 m/s 729 mmHg 69%
09:00 +29°C° 0 mm 1 m/s 729 mmHg 60%
10:00 +31°C° 0 mm 1 m/s 729 mmHg 54%
11:00 +32°C° 0 mm 2 m/s 728 mmHg 48%
12:00 +35°C° 0 mm 2 m/s 728 mmHg 42%
13:00 +35°C° 0 mm 2 m/s 727 mmHg 43%
14:00 +35°C° 0 mm 2 m/s 727 mmHg 43%
15:00 +35°C° 0 mm 2 m/s 726 mmHg 43%
16:00 +32°C° 0.2 mm 2 m/s 726 mmHg 50%
17:00 +30°C° 0.2 mm 2 m/s 726 mmHg 57%
18:00 +28°C° 0.2 mm 1 m/s 726 mmHg 65%
19:00 +27°C° 1 mm 1 m/s 727 mmHg 74%
20:00 +25°C° 1 mm 1 m/s 727 mmHg 83%
21:00 +24°C° 1 mm 1 m/s 728 mmHg 92%
22:00 +23°C° 0.1 mm 1 m/s 728 mmHg 93%
23:00 +21°C° 0.1 mm 0 m/s 728 mmHg 93%

Depois de amanhã, 25 Junho, Sexta-feira

Tempo Temperatura Precipitação Vento Pressão Humidade
00:00 +21°C° 0.1 mm 0 m/s 728 mmHg 94%
01:00 +21°C° 0 mm 0 m/s 727 mmHg 94%
02:00 +20°C° 0 mm 0 m/s 727 mmHg 95%
03:00 +20°C° 0 mm 0 m/s 727 mmHg 95%
04:00 +20°C° 0 mm 0 m/s 727 mmHg 95%
05:00 +21°C° 0 mm 0 m/s 727 mmHg 95%
06:00 +21°C° 0 mm 0 m/s 727 mmHg 94%
07:00 +23°C° 0 mm 0 m/s 727 mmHg 86%
08:00 +27°C° 0 mm 1 m/s 728 mmHg 77%
09:00 +29°C° 0 mm 1 m/s 728 mmHg 68%
10:00 +31°C° 0 mm 1 m/s 727 mmHg 60%
11:00 +32°C° 0 mm 2 m/s 727 mmHg 51%
12:00 +35°C° 0 mm 2 m/s 727 mmHg 43%
13:00 +36°C° 0 mm 2 m/s 726 mmHg 40%
14:00 +36°C° 0 mm 2 m/s 725 mmHg 36%
15:00 +37°C° 0 mm 2 m/s 724 mmHg 33%
16:00 +35°C° 0.1 mm 2 m/s 725 mmHg 42%
17:00 +31°C° 0.1 mm 2 m/s 725 mmHg 52%
18:00 +29°C° 0.1 mm 3 m/s 726 mmHg 61%
19:00 +28°C° 0.2 mm 2 m/s 726 mmHg 68%
20:00 +26°C° 0.2 mm 1 m/s 726 mmHg 76%
21:00 +25°C° 0.2 mm 1 m/s 727 mmHg 83%
22:00 +24°C° 0 mm 1 m/s 727 mmHg 86%
23:00 +22°C° 0 mm 0 m/s 727 mmHg 89%

26 Junho, Sábado

Tempo Temperatura Precipitação Vento Pressão Humidade
00:00 +21°C° 0 mm 0 m/s 726 mmHg 92%
01:00 +21°C° 0 mm 0 m/s 726 mmHg 93%
02:00 +21°C° 0 mm 0 m/s 726 mmHg 94%
03:00 +21°C° 0 mm 0 m/s 726 mmHg 96%
04:00 +21°C° 0 mm 0 m/s 726 mmHg 96%
05:00 +21°C° 0 mm 0 m/s 726 mmHg 95%
06:00 +21°C° 0 mm 0 m/s 726 mmHg 95%
07:00 +23°C° 0 mm 0 m/s 726 mmHg 84%
08:00 +26°C° 0 mm 0 m/s 727 mmHg 74%
09:00 +30°C° 0 mm 1 m/s 727 mmHg 63%
10:00 +32°C° 0 mm 1 m/s 727 mmHg 54%
11:00 +33°C° 0 mm 1 m/s 726 mmHg 45%
12:00 +36°C° 0 mm 2 m/s 726 mmHg 36%
13:00 +36°C° 0 mm 2 m/s 725 mmHg 34%
14:00 +37°C° 0 mm 2 m/s 724 mmHg 32%
15:00 +37°C° 0 mm 2 m/s 724 mmHg 30%
16:00 +35°C° 0 mm 2 m/s 724 mmHg 36%
17:00 +34°C° 0 mm 2 m/s 724 mmHg 42%
18:00 +31°C° 0 mm 3 m/s 724 mmHg 48%
19:00 +28°C° 0.6 mm 2 m/s 725 mmHg 63%
20:00 +26°C° 0.6 mm 2 m/s 725 mmHg 77%
21:00 +24°C° 0.6 mm 1 m/s 726 mmHg 92%
22:00 +24°C° 0.2 mm 1 m/s 726 mmHg 94%
23:00 +23°C° 0.2 mm 1 m/s 726 mmHg 95%

27 Junho, Domingo

Tempo Temperatura Precipitação Vento Pressão Humidade
00:00 +23°C° 0.2 mm 1 m/s 726 mmHg 97%
01:00 +21°C° 0.1 mm 0 m/s 726 mmHg 97%
02:00 +21°C° 0.1 mm 0 m/s 726 mmHg 97%
03:00 +21°C° 0.1 mm 0 m/s 725 mmHg 97%
04:00 +21°C° 0 mm 0 m/s 726 mmHg 97%
05:00 +21°C° 0 mm 0 m/s 726 mmHg 96%
06:00 +21°C° 0 mm 0 m/s 726 mmHg 95%
07:00 +23°C° 0 mm 0 m/s 726 mmHg 87%
08:00 +27°C° 0 mm 1 m/s 727 mmHg 78%
09:00 +28°C° 0 mm 1 m/s 727 mmHg 70%
10:00 +30°C° 0 mm 1 m/s 727 mmHg 61%
11:00 +32°C° 0 mm 1 m/s 726 mmHg 52%
12:00 +35°C° 0 mm 2 m/s 726 mmHg 43%
13:00 +35°C° 0 mm 2 m/s 725 mmHg 44%
14:00 +34°C° 0 mm 3 m/s 725 mmHg 46%
15:00 +34°C° 0 mm 3 m/s 724 mmHg 48%
16:00 +31°C° 0.1 mm 3 m/s 725 mmHg 53%
17:00 +30°C° 0.1 mm 2 m/s 725 mmHg 58%
18:00 +29°C° 0.1 mm 2 m/s 725 mmHg 63%
19:00 +27°C° 0.6 mm 1 m/s 726 mmHg 72%
20:00 +26°C° 0.6 mm 1 m/s 726 mmHg 82%
21:00 +22°C° 0.6 mm 0 m/s 727 mmHg 91%
22:00 +22°C° 0.8 mm 0 m/s 727 mmHg 92%
23:00 +22°C° 0.8 mm 0 m/s 727 mmHg 94%

28 Junho, Segunda-feira

Tempo Temperatura Precipitação Vento Pressão Humidade
00:00 +22°C° 0.8 mm 0 m/s 727 mmHg 95%
01:00 +22°C° 0.2 mm 0 m/s 727 mmHg 96%
02:00 +22°C° 0.2 mm 0 m/s 727 mmHg 96%
03:00 +22°C° 0.2 mm 0 m/s 726 mmHg 96%
04:00 +22°C° 0 mm 0 m/s 727 mmHg 96%
05:00 +22°C° 0 mm 0 m/s 727 mmHg 96%
06:00 +22°C° 0 mm 0 m/s 727 mmHg 95%
07:00 +23°C° 0 mm 0 m/s 727 mmHg 90%
08:00 +24°C° 0 mm 0 m/s 727 mmHg 84%
09:00 +26°C° 0 mm 0 m/s 728 mmHg 78%
10:00 +30°C° 0 mm 1 m/s 727 mmHg 67%
11:00 +32°C° 0 mm 1 m/s 727 mmHg 57%
12:00 +34°C° 0 mm 1 m/s 727 mmHg 46%
13:00 +35°C° 0.1 mm 2 m/s 726 mmHg 47%
14:00 +35°C° 0.1 mm 2 m/s 725 mmHg 47%
15:00 +34°C° 0.1 mm 2 m/s 725 mmHg 48%
16:00 +32°C° 0.2 mm 2 m/s 725 mmHg 56%
17:00 +30°C° 0.2 mm 2 m/s 725 mmHg 63%
18:00 +28°C° 0.2 mm 2 m/s 725 mmHg 71%
19:00 +27°C° 0.9 mm 1 m/s 726 mmHg 78%
20:00 +26°C° 0.9 mm 1 m/s 727 mmHg 85%
21:00 +24°C° 0.9 mm 1 m/s 727 mmHg 93%
22:00 +24°C° 0.1 mm 1 m/s 727 mmHg 94%
23:00 +24°C° 0.1 mm 1 m/s 727 mmHg 95%
Mostrar mais

Necessitamos do seu Consentimento

A Meteoprog e os seus Fornecedores de Serviços podem armazenar e aceder a dados pessoais como cookies, identificadores do dispositivo ou outras tecnologias semelhantes existentes no seu dispositivo e processar estes dados para personalizar conteúdos e anúncios, assim como funcionalidades nas redes sociais e análise de tráfego.

  • Armazenar e/ou aceder a informações no seu dispositivo

    Os cookies, identificadores do dispositivo ou outras informações podem ser armazenados ou acedidos no seu dispositivo, para os fins acima indicados.

  • Anúncios e conteúdos personalizados, medição de anúncios e conteúdos, dados sobre o público-alvo e desenvolvimento de produtos

    Os anúncios e os conteúdos podem ser personalizados com base num perfil. Podem ser adicionados dados adicionais para uma maior personalização dos anúncios e dos conteúdos. A eficácia dos anúncios e dos conteúdos pode ser medida. Podem ser obtidas informações sobre o público que visualizou os anúncios e os conteúdos. Estes dados podem ser usados para desenvolver ou melhorar sistemas, softwares ou a experiência do utilizador.

Ao clicar em "Eu concordo”, permitirá o uso de cookies, identificadores do dispositivo e web beacons mencionados ou outras tecnologias semelhantes. As configurações do navegador do seu dispositivo podem ser alteradas.

Para certos fins, podem ser invocados interesses legítimos ao invés de consentimento. Pode ler mais informação sobre este assunto na nossa Política de Privacidade e Cookies.